Find Starlink 30796

NORAD ID: 58189 Int'l Des: 2023-167 Owner: SPXS Country: US Constellation: starlink operational
LEOCIRCULAR

当前视图

正在加载3D地球...

About Starlink 30796

Starlink 30796 (NORAD 58189) is a starlink constellation satellite (v2 mini) launched Oct 30, 2023 by SPXS of US. It operates in LEO, CIRCULAR orbit with a mass of 730.00 kg.

即将过境

Passes for default location (London). Set your location on the main map for personalized predictions.

高度历史

Loading altitude history...

两行轨道根数

1 58189U 23167Q 26262.98554542 .00000023 00000-0 10357-4 0 9995
2 58189 43.0016 125.8193 0001278 272.7433 87.3273 15.27578467160708
Epoch: Sep 19, 2026 • Age: 22 hours

当前状态

高度 485.5 km
远地点 / 近地点 N/A
速度 7.62 km/s
星下点 -15.10°S, 141.28°E
发射日期 Oct 30, 2023
运行时间 2.8 years
类型 internet

技术详情

分类 Payload
质量 730.00 kg
干质量 700.00 kg
长度 0.30 m
跨度 29.00 m
形状 ? Box + pan
制造商 SPXS
平台类型 Starlink V2M
阶段状态 In Orbit
所有者/国家 SPXS/US

Most Searched